Regional Weather Roundup
Issued by NWS

Home | Current Version | Previous Version | Text Only | Print | Product List | Glossary On
Versions: 1 2 3 4 5 6 7 8 9 10 11 12 13 14 15 16 17 18 19 20 21 22 23 24 25 26 27 28 29 30 31 32 33 34 35 36 37 38 39 40 41 42 43 44 45 46 47 48 49 50
000
ASCA44 KEWX 230120
RWRMX

LATIN AMERICA AND CARIBBEAN REGIONAL WEATHER ROUNDUP
NATIONAL WEATHER SERVICE AUSTIN/SAN ANTONIO TX
700 PM CST THU FEB 22 2018

NOTE: "FAIR" INDICATED FEW OR NO CLOUDS BELOW 12,000 FEET WITH NO
SIGNIFICANT WEATHER AND/OR OBSTRUCTIONS TO VISIBILITY.

BAJA CALIFORNIA

CITY           SKY/WX    TMP DP  RH WIND       PRES   REMARKS
LORETO         MOCLDY    64  55  72 NE15      30.09S
LA PAZ         PTCLDY    66  48  52 N12       30.11S
MEXICALI       PTCLDY    64  27  24 W9        30.11F
S.J. DEL CABO  PTCLDY    68  50  52 NW12      30.09
TIJUANA        MOCLDY    52  45  76 W8        30.23

NORTHWESTERN MEXICO

CITY           SKY/WX    TMP DP  RH WIND       PRES   REMARKS
CULIACAN       MOCLDY    73  50  43 W6        30.03S
DURANGO        CLOUDY    66  36  32 S14       30.26R
GUAYMAS        PTCLDY    68  46  45 NW12      30.05S
HERMOSILLO     CLEAR     70  32  24 W8        30.12S
CD. JUAREZ     PTCLDY    59  21  23 SE6       30.08R
LOS MOCHIS     CLOUDY    64  43  45 NW17      30.09S
OBREGON        MOCLDY    64  45  48 W9        30.04F

NORTHEASTERN MEXICO

CITY           SKY/WX    TMP DP  RH WIND       PRES   REMARKS
CHIHUAHUA      MOCLDY    72  10   9 SW16      30.05R
MATAMOROS      CLOUDY    66  63  88 NE8       30.11R
MONTERREY      CLOUDY    54  52  94 SE7       30.12F FOG
NUEVO LAREDO   CLOUDY    57  50  77 CALM      30.14R
PIEDRAS NEGRAS   N/A    N/A N/A N/A MISG        N/A
REYNOSA        CLOUDY    57  54  88 N5        30.13  FOG
SALTILLO       LGT RAIN  61  52  72 CALM      30.21S
TORREON        MOCLDY    82  39  21 E9        30.05
CD. VICTORIA   PTCLDY    77  64  65 NE12      30.05R

WESTERN MEXICO

CITY           SKY/WX    TMP DP  RH WIND       PRES   REMARKS
AGUASCALIENTES MOCLDY    73  34  23 SW8       30.24R
COLIMA           N/A    N/A N/A N/A MISG        N/A
DEL BAJIO      MOCLDY    73  39  29 CALM      30.25R
GUADALAJARA    MOCLDY    75  41  29 W5        30.16R
MANZANILLO     PTCLDY    79  68  69 SW9       29.95
MAZATLAN       MOCLDY    70  57  64 NW6       30.02R
URUAPAN        CLEAR     72  50  46 CALM      30.20R
ZACATECAS      PTCLDY    66  34  30 W12       30.29

CENTRAL MEXICO

CITY           SKY/WX    TMP DP  RH WIND       PRES   REMARKS
CUERNAVACA       N/A    N/A N/A N/A MISG        N/A
MEXICO CITY    CLOUDY    70  46  43 SE9       30.30R THUNDER
MORELIA        PTCLDY    70  41  35 SW10      30.20R
POZA RICA      PTCLDY    77  72  83 SE7       30.10R
QUERETARO      PTCLDY    70  50  49 E14       30.26R
S. LUIS POTOSI PTCLDY    64  50  59 E8        30.24R
TAMPICO        PTCLDY    75  73  94 MISG      30.06R
TOLUCA         LGT RAIN  57  48  72 CALM      30.39  HAZE

SOUTHERN MEXICO

CITY           SKY/WX    TMP DP  RH WIND       PRES   REMARKS
ACAPULCO       CLEAR     81  73  78 W10       29.92R
B. DE HUATULCO CLEAR    N/A N/A N/A CALM      29.96R
OAXACA         CLOUDY    75  41  29 E14       30.18R
P. ESCONDIDO   CLEAR     79  70  73 CALM      30.02R
VERACRUZ       PTCLDY    77  72  83 N5        30.06
ZIHUATANEJO    CLEAR     82  72  69 W8        29.94

YUCATAN PENINSULA

CITY           SKY/WX    TMP DP  RH WIND       PRES   REMARKS
CAMPECHE       PTCLDY    82  70  65 E12G23    30.01R
CANCUN         PTCLDY    77  73  88 E9        30.15R
CHETUMAL       PTCLDY    79  72  78 E6        30.09R
CD. DEL CARMEN CLEAR     84  70  61 E7        30.00R
COZUMEL        PTCLDY    77  72  83 E7        30.13R
MERIDA         PTCLDY    84  64  51 SE21      30.08R
MINATITLAN     PTCLDY    77  68  73 N12       29.98R
TAPACHULA      PTCLDY    81  72  74 W3        29.92R
TUX. GUTIERREZ MOCLDY    79  66  65 NW18      29.96R
VILLAHERMOSA   CLEAR     79  68  69 E5        29.99R

CENTRAL AMERICA

CITY           SKY/WX    TMP DP  RH WIND       PRES   REMARKS
BELIZE CITY    LGT RAIN  75  72  88 E7        30.07R
MANAGUA        MOCLDY    75  72  88 E9        29.94R

CARIBBEAN

CITY           SKY/WX    TMP DP  RH WIND       PRES   REMARKS
ARUBA          PTCLDY    77  72  83 E12       30.00R
CURACAO        PTCLDY    77  70  78 E15       30.03R
KINGSTON       PTCLDY    81  68  65 E10       30.06R
NASSAU         MOCLDY    75  68  78 NE9       30.32R
SAN JUAN       PTCLDY    75  70  83 E22       30.17R
SANTO DOMINGO  MOCLDY   N/A N/A N/A NE14      30.15R
ST. CROIX      CLEAR     75  63  64 E14       30.15R
ST. KITTS      PTCLDY    77  64  65 NE17      30.12S
ST. MAARTEN    PTCLDY    77  63  61 E16       30.15S
ST. THOMAS     PTCLDY    75  68  78 E14       30.15R

$$




USA.gov is the U.S. government's official web portal to all federal, state and local government web resources and services.